Time,TemperatureF,DewpointF,PressureIn,WindDirection,WindDirectionDegrees,WindSpeedMPH,WindSpeedGustMPH,Humidity,HourlyPrecipIn,Conditions,Clouds,dailyrainin,SoftwareType,DateUTC
2013-03-24 00:00:00,34.7,20.2,29.95,NW,317,3.0,14.0,55,0.00,,---,0.00,VWS V14.01,2013-03-24 04:00:00,
2013-03-24 00:05:00,34.7,20.2,29.95,NE,34,8.0,11.0,55,0.00,,---,0.00,VWS V14.01,2013-03-24 04:05:00,
2013-03-24 00:10:00,34.8,20.7,29.95,North,6,2.0,11.0,56,0.00,,---,0.00,VWS V14.01,2013-03-24 04:10:00,
2013-03-24 00:15:00,34.6,21.0,29.94,NW,305,3.0,11.0,57,0.00,,---,0.00,VWS V14.01,2013-03-24 04:15:00,
2013-03-24 00:20:00,34.6,21.0,29.95,NNW,344,6.0,11.0,57,0.00,,---,0.00,VWS V14.01,2013-03-24 04:20:00,
2013-03-24 00:25:00,34.5,20.9,29.95,NE,48,0.0,11.0,57,0.00,,---,0.00,VWS V14.01,2013-03-24 04:25:00,
2013-03-24 00:30:00,34.4,20.8,29.94,NW,311,1.0,11.0,57,0.00,,---,0.00,VWS V14.01,2013-03-24 04:30:00,
2013-03-24 00:35:00,34.3,21.1,29.94,NW,321,2.0,3.0,58,0.00,,---,0.00,VWS V14.01,2013-03-24 04:35:00,
2013-03-24 00:40:00,34.1,20.5,29.95,WNW,298,3.0,7.0,57,0.00,,---,0.00,VWS V14.01,2013-03-24 04:40:00,
2013-03-24 00:45:00,34.1,20.5,29.95,NNW,330,0.0,7.0,57,0.00,,---,0.00,VWS V14.01,2013-03-24 04:45:00,
2013-03-24 00:50:00,33.9,20.7,29.95,NW,305,7.0,7.0,58,0.00,,---,0.00,VWS V14.01,2013-03-24 04:50:00,
2013-03-24 00:55:00,33.9,20.3,29.94,WNW,290,2.0,9.0,57,0.00,,---,0.00,VWS V14.01,2013-03-24 04:55:00,
2013-03-24 01:00:00,33.9,20.3,29.94,NNE,16,2.0,9.0,57,0.00,,---,0.00,VWS V14.01,2013-03-24 05:00:00,
2013-03-24 01:05:00,33.8,20.2,29.94,WNW,300,3.0,5.0,57,0.00,,---,0.00,VWS V14.01,2013-03-24 05:05:00,
2013-03-24 01:10:00,33.7,20.1,29.94,SW,228,1.0,5.0,57,0.00,,---,0.00,VWS V14.01,2013-03-24 05:10:00,
2013-03-24 01:15:00,33.7,20.5,29.95,WNW,303,1.0,7.0,58,0.00,,---,0.00,VWS V14.01,2013-03-24 05:15:00,
2013-03-24 01:20:00,33.6,20.4,29.95,NE,36,1.0,7.0,58,0.00,,---,0.00,VWS V14.01,2013-03-24 05:20:00,
2013-03-24 01:25:00,33.5,20.3,29.94,NNE,31,1.0,7.0,58,0.00,,---,0.00,VWS V14.01,2013-03-24 05:25:00,
2013-03-24 01:30:00,33.4,19.8,29.94,WNW,287,1.0,7.0,57,0.00,,---,0.00,VWS V14.01,2013-03-24 05:30:00,
2013-03-24 01:35:00,33.2,20.4,29.94,ENE,77,2.0,2.0,59,0.00,,---,0.00,VWS V14.01,2013-03-24 05:35:00,
2013-03-24 01:40:00,33.3,19.7,29.94,ESE,103,0.0,4.0,57,0.00,,---,0.00,VWS V14.01,2013-03-24 05:40:00,
2013-03-24 01:45:00,33.2,20.0,29.93,NNE,16,2.0,4.0,58,0.00,,---,0.00,VWS V14.01,2013-03-24 05:45:00,
2013-03-24 01:50:00,33.2,20.0,29.94,North,5,0.0,4.0,58,0.00,,---,0.00,VWS V14.01,2013-03-24 05:50:00,
2013-03-24 01:55:00,32.9,19.8,29.94,WSW,249,0.0,4.0,58,0.00,,---,0.00,VWS V14.01,2013-03-24 05:55:00,
2013-03-24 02:00:00,32.9,19.8,29.94,NW,310,2.0,5.0,58,0.00,,---,0.00,VWS V14.01,2013-03-24 06:00:00,
2013-03-24 02:05:00,33.0,19.9,29.93,WNW,291,2.0,4.0,58,0.00,,---,0.00,VWS V14.01,2013-03-24 06:05:00,
2013-03-24 02:10:00,33.1,19.5,29.93,NW,323,0.0,6.0,57,0.00,,---,0.00,VWS V14.01,2013-03-24 06:10:00,
2013-03-24 02:15:00,33.0,19.4,29.93,NNE,32,1.0,6.0,57,0.00,,---,0.00,VWS V14.01,2013-03-24 06:15:00,
2013-03-24 02:20:00,33.1,19.5,29.93,WNW,288,4.0,6.0,57,0.00,,---,0.00,VWS V14.01,2013-03-24 06:20:00,
2013-03-24 02:25:00,33.1,19.5,29.93,North,355,2.0,6.0,57,0.00,,---,0.00,VWS V14.01,2013-03-24 06:25:00,
2013-03-24 02:30:00,33.1,19.9,29.93,NE,51,1.0,6.0,58,0.00,,---,0.00,VWS V14.01,2013-03-24 06:30:00,
2013-03-24 02:35:00,32.7,19.6,29.92,ESE,107,0.0,1.0,58,0.00,,---,0.00,VWS V14.01,2013-03-24 06:35:00,
2013-03-24 02:40:00,32.7,19.6,29.92,ENE,69,1.0,4.0,58,0.00,,---,0.00,VWS V14.01,2013-03-24 06:40:00,
2013-03-24 02:45:00,32.6,19.5,29.91,NE,48,3.0,4.0,58,0.00,,---,0.00,VWS V14.01,2013-03-24 06:45:00,
2013-03-24 02:50:00,32.8,19.7,29.91,East,101,0.0,4.0,58,0.00,,---,0.00,VWS V14.01,2013-03-24 06:50:00,
2013-03-24 02:55:00,32.4,20.1,29.91,NW,307,0.0,4.0,60,0.00,,---,0.00,VWS V14.01,2013-03-24 06:55:00,
2013-03-24 03:00:00,32.0,20.1,29.91,NE,36,1.0,4.0,61,0.00,,---,0.00,VWS V14.01,2013-03-24 07:00:00,
2013-03-24 03:05:00,32.0,19.7,29.90,NNE,13,0.0,4.0,60,0.00,,---,0.00,VWS V14.01,2013-03-24 07:05:00,
2013-03-24 03:10:00,32.1,19.8,29.90,NW,313,0.0,4.0,60,0.00,,---,0.00,VWS V14.01,2013-03-24 07:10:00,
2013-03-24 03:15:00,32.2,19.5,29.90,NW,314,2.0,4.0,59,0.00,,---,0.00,VWS V14.01,2013-03-24 07:15:00,
2013-03-24 03:20:00,32.1,20.6,29.90,WSW,257,1.0,4.0,62,0.00,,---,0.00,VWS V14.01,2013-03-24 07:20:00,
2013-03-24 03:25:00,31.6,19.7,29.90,WSW,253,0.0,4.0,61,0.00,,---,0.00,VWS V14.01,2013-03-24 07:25:00,
2013-03-24 03:30:00,31.4,20.3,29.91,West,274,0.0,4.0,63,0.00,,---,0.00,VWS V14.01,2013-03-24 07:30:00,
2013-03-24 03:35:00,31.4,19.9,29.91,SW,236,1.0,3.0,62,0.00,,---,0.00,VWS V14.01,2013-03-24 07:35:00,
2013-03-24 03:40:00,31.3,20.9,29.91,WNW,295,0.0,3.0,65,0.00,,---,0.00,VWS V14.01,2013-03-24 07:40:00,
2013-03-24 03:45:00,30.9,20.5,29.91,West,262,0.0,3.0,65,0.00,,---,0.00,VWS V14.01,2013-03-24 07:45:00,
2013-03-24 03:50:00,30.5,20.1,29.92,SSW,208,1.0,3.0,65,0.00,,---,0.00,VWS V14.01,2013-03-24 07:50:00,
2013-03-24 03:55:00,30.3,20.0,29.92,SSE,155,1.0,3.0,65,0.00,,---,0.00,VWS V14.01,2013-03-24 07:55:00,
2013-03-24 04:00:00,30.0,20.7,29.92,West,273,0.0,3.0,68,0.00,,---,0.00,VWS V14.01,2013-03-24 08:00:00,
2013-03-24 04:05:00,29.6,20.7,29.92,West,264,0.0,1.0,69,0.00,,---,0.00,VWS V14.01,2013-03-24 08:05:00,
2013-03-24 04:10:00,29.8,20.2,29.92,West,264,0.0,1.0,67,0.00,,---,0.00,VWS V14.01,2013-03-24 08:10:00,
2013-03-24 04:15:00,29.7,20.8,29.92,West,264,0.0,1.0,69,0.00,,---,0.00,VWS V14.01,2013-03-24 08:15:00,
2013-03-24 04:20:00,29.3,20.4,29.92,West,259,0.0,1.0,69,0.00,,---,0.00,VWS V14.01,2013-03-24 08:20:00,
2013-03-24 04:25:00,29.3,20.7,29.92,West,264,0.0,2.0,70,0.00,,---,0.00,VWS V14.01,2013-03-24 08:25:00,
2013-03-24 04:30:00,29.0,20.5,29.92,South,187,0.0,2.0,70,0.00,,---,0.00,VWS V14.01,2013-03-24 08:30:00,
2013-03-24 04:35:00,29.0,20.5,29.92,South,186,0.0,1.0,70,0.00,,---,0.00,VWS V14.01,2013-03-24 08:35:00,
2013-03-24 04:40:00,28.8,20.6,29.92,South,186,0.0,1.0,71,0.00,,---,0.00,VWS V14.01,2013-03-24 08:40:00,
2013-03-24 04:45:00,28.5,20.3,29.92,South,186,0.0,1.0,71,0.00,,---,0.00,VWS V14.01,2013-03-24 08:45:00,
2013-03-24 04:50:00,28.3,21.7,29.92,West,260,0.0,1.0,76,0.00,,---,0.00,VWS V14.01,2013-03-24 08:50:00,
2013-03-24 04:55:00,28.3,21.7,29.93,West,269,0.0,2.0,76,0.00,,---,0.00,VWS V14.01,2013-03-24 08:55:00,
2013-03-24 05:00:00,28.2,21.3,29.93,West,264,1.0,2.0,75,0.00,,---,0.00,VWS V14.01,2013-03-24 09:00:00,
2013-03-24 05:05:00,28.1,21.5,29.93,West,263,1.0,2.0,76,0.00,,---,0.00,VWS V14.01,2013-03-24 09:05:00,
2013-03-24 05:10:00,28.1,22.1,29.93,West,267,0.0,2.0,78,0.00,,---,0.00,VWS V14.01,2013-03-24 09:10:00,
2013-03-24 05:15:00,28.1,21.5,29.93,WSW,256,0.0,2.0,76,0.00,,---,0.00,VWS V14.01,2013-03-24 09:15:00,
2013-03-24 05:20:00,28.3,21.7,29.93,WSW,256,0.0,2.0,76,0.00,,---,0.00,VWS V14.01,2013-03-24 09:20:00,
2013-03-24 05:25:00,28.1,21.2,29.93,WSW,256,0.0,2.0,75,0.00,,---,0.00,VWS V14.01,2013-03-24 09:25:00,
2013-03-24 05:30:00,27.9,20.7,29.93,SSW,194,0.0,2.0,74,0.00,,---,0.00,VWS V14.01,2013-03-24 09:30:00,
2013-03-24 05:35:00,27.9,20.4,29.93,South,180,0.0,1.0,73,0.00,,---,0.00,VWS V14.01,2013-03-24 09:35:00,
2013-03-24 05:40:00,27.9,20.1,29.93,South,177,1.0,1.0,72,0.00,,---,0.00,VWS V14.01,2013-03-24 09:40:00,
2013-03-24 05:45:00,28.3,20.1,29.93,SSE,150,2.0,2.0,71,0.00,,---,0.00,VWS V14.01,2013-03-24 09:45:00,
2013-03-24 05:50:00,28.7,20.2,29.93,SE,141,1.0,3.0,70,0.00,,---,0.00,VWS V14.01,2013-03-24 09:50:00,
2013-03-24 05:55:00,28.7,20.2,29.94,South,172,0.0,3.0,70,0.00,,---,0.00,VWS V14.01,2013-03-24 09:55:00,
2013-03-24 06:00:00,28.5,21.6,29.94,South,172,0.0,3.0,75,0.00,,---,0.00,VWS V14.01,2013-03-24 10:00:00,
2013-03-24 06:05:00,28.0,20.5,29.94,SE,142,1.0,1.0,73,0.00,,---,0.00,VWS V14.01,2013-03-24 10:05:00,
2013-03-24 06:10:00,28.1,20.2,29.94,SE,142,0.0,1.0,72,0.00,,---,0.00,VWS V14.01,2013-03-24 10:10:00,
2013-03-24 06:15:00,28.0,20.8,29.94,West,276,1.0,1.0,74,0.00,,---,0.00,VWS V14.01,2013-03-24 10:15:00,
2013-03-24 06:20:00,27.7,21.1,29.94,SSE,161,0.0,1.0,76,0.00,,---,0.00,VWS V14.01,2013-03-24 10:20:00,
2013-03-24 06:25:00,27.5,20.9,29.94,SSW,203,0.0,2.0,76,0.00,,---,0.00,VWS V14.01,2013-03-24 10:25:00,
2013-03-24 06:30:00,27.7,21.1,29.93,NW,311,0.0,2.0,76,0.00,,---,0.00,VWS V14.01,2013-03-24 10:30:00,
2013-03-24 06:35:00,27.7,20.5,29.93,SE,143,1.0,1.0,74,0.00,,---,0.00,VWS V14.01,2013-03-24 10:35:00,
2013-03-24 06:40:00,28.0,20.5,29.93,SSE,153,0.0,1.0,73,0.00,,---,0.00,VWS V14.01,2013-03-24 10:40:00,
2013-03-24 06:45:00,28.1,21.5,29.93,SE,146,1.0,2.0,76,0.00,,---,0.00,VWS V14.01,2013-03-24 10:45:00,
2013-03-24 06:49:00,27.8,21.9,29.93,WSW,257,0.0,2.0,78,0.00,,---,0.00,VWS V14.01,2013-03-24 10:49:00,
2013-03-24 06:54:00,27.7,21.1,29.93,SSE,151,0.0,2.0,76,0.00,,---,0.00,VWS V14.01,2013-03-24 10:54:00,
2013-03-24 06:59:00,28.1,21.5,29.93,WNW,302,0.0,2.0,76,0.00,,---,0.00,VWS V14.01,2013-03-24 10:59:00,
2013-03-24 07:04:00,28.3,20.4,29.94,SE,128,0.0,2.0,72,0.00,,---,0.00,VWS V14.01,2013-03-24 11:04:00,
2013-03-24 07:09:00,28.6,20.4,29.94,SSE,158,0.0,2.0,71,0.00,,---,0.00,VWS V14.01,2013-03-24 11:09:00,
2013-03-24 07:14:00,28.5,21.9,29.94,West,262,1.0,2.0,76,0.00,,---,0.00,VWS V14.01,2013-03-24 11:14:00,
2013-03-24 07:19:00,28.4,21.2,29.95,West,262,0.0,2.0,74,0.00,,---,0.00,VWS V14.01,2013-03-24 11:19:00,
2013-03-24 07:24:00,28.6,20.7,29.95,SSE,150,1.0,2.0,72,0.00,,---,0.00,VWS V14.01,2013-03-24 11:24:00,
2013-03-24 07:29:00,29.0,21.1,29.95,South,169,0.0,2.0,72,0.00,,---,0.00,VWS V14.01,2013-03-24 11:29:00,
2013-03-24 07:34:00,29.2,21.3,29.95,SSE,148,0.0,1.0,72,0.00,,---,0.00,VWS V14.01,2013-03-24 11:34:00,
2013-03-24 07:39:00,29.5,21.9,29.95,SE,132,0.0,2.0,73,0.00,,---,0.00,VWS V14.01,2013-03-24 11:39:00,
2013-03-24 07:44:00,29.8,21.6,29.95,West,262,3.0,3.0,71,0.00,,---,0.00,VWS V14.01,2013-03-24 11:44:00,
2013-03-24 07:49:00,30.7,21.8,29.95,WNW,282,2.0,5.0,69,0.00,,---,0.00,VWS V14.01,2013-03-24 11:49:00,
2013-03-24 07:54:00,31.3,21.3,29.95,NNE,15,5.0,5.0,66,0.00,,---,0.00,VWS V14.01,2013-03-24 11:54:00,
2013-03-24 07:59:00,31.6,21.2,29.95,NE,41,2.0,9.0,65,0.00,,---,0.00,VWS V14.01,2013-03-24 11:59:00,
2013-03-24 08:04:00,31.9,21.5,29.95,NNW,347,1.0,4.0,65,0.00,,---,0.00,VWS V14.01,2013-03-24 12:04:00,
2013-03-24 08:09:00,32.1,21.3,29.95,WNW,297,0.0,4.0,64,0.00,,---,0.00,VWS V14.01,2013-03-24 12:09:00,
2013-03-24 08:14:00,32.3,21.5,29.96,West,280,1.0,4.0,64,0.00,,---,0.00,VWS V14.01,2013-03-24 12:14:00,
2013-03-24 08:19:00,32.4,21.6,29.96,West,271,0.0,4.0,64,0.00,,---,0.00,VWS V14.01,2013-03-24 12:19:00,
2013-03-24 08:24:00,32.6,21.4,29.96,West,274,4.0,5.0,63,0.00,,---,0.00,VWS V14.01,2013-03-24 12:24:00,
2013-03-24 08:29:00,32.8,21.6,29.96,NNE,32,2.0,5.0,63,0.00,,---,0.00,VWS V14.01,2013-03-24 12:29:00,
2013-03-24 08:34:00,33.1,21.9,29.97,ESE,121,2.0,4.0,63,0.00,,---,0.00,VWS V14.01,2013-03-24 12:34:00,
2013-03-24 08:39:00,33.3,21.7,29.96,NNW,332,4.0,6.0,62,0.00,,---,0.00,VWS V14.01,2013-03-24 12:39:00,
2013-03-24 08:44:00,33.5,21.9,29.96,WNW,299,4.0,7.0,62,0.00,,---,0.00,VWS V14.01,2013-03-24 12:44:00,
2013-03-24 08:49:00,33.7,21.7,29.95,NW,308,3.0,7.0,61,0.00,,---,0.00,VWS V14.01,2013-03-24 12:49:00,
2013-03-24 08:54:00,34.0,21.6,29.95,NNW,340,3.0,7.0,60,0.00,,---,0.00,VWS V14.01,2013-03-24 12:54:00,
2013-03-24 08:59:00,34.2,21.8,29.95,ENE,76,2.0,7.0,60,0.00,,---,0.00,VWS V14.01,2013-03-24 12:59:00,
2013-03-24 09:04:00,34.5,21.3,29.95,West,265,4.0,10.0,58,0.00,,---,0.00,VWS V14.01,2013-03-24 13:04:00,
2013-03-24 09:09:00,34.8,21.5,29.94,NW,310,3.0,10.0,58,0.00,,---,0.00,VWS V14.01,2013-03-24 13:09:00,
2013-03-24 09:14:00,35.2,23.1,29.95,NNE,20,2.0,10.0,61,0.00,,---,0.00,VWS V14.01,2013-03-24 13:14:00,
2013-03-24 09:19:00,35.5,22.2,29.95,NW,305,8.0,10.0,58,0.00,,---,0.00,VWS V14.01,2013-03-24 13:19:00,
2013-03-24 09:24:00,35.4,22.5,29.95,NNE,30,12.0,13.0,59,0.00,,---,0.00,VWS V14.01,2013-03-24 13:24:00,
2013-03-24 09:29:00,35.2,21.9,29.95,NNE,19,9.0,13.0,58,0.00,,---,0.00,VWS V14.01,2013-03-24 13:29:00,
2013-03-24 09:34:00,35.3,22.0,29.95,NNE,16,4.0,13.0,58,0.00,,---,0.00,VWS V14.01,2013-03-24 13:34:00,
2013-03-24 09:39:00,35.3,21.6,29.95,WNW,287,15.0,15.0,57,0.00,,---,0.00,VWS V14.01,2013-03-24 13:39:00,
2013-03-24 09:44:00,35.5,21.4,29.95,WNW,300,4.0,17.0,56,0.00,,---,0.00,VWS V14.01,2013-03-24 13:44:00,
2013-03-24 09:49:00,35.5,21.8,29.94,NE,46,0.0,17.0,57,0.00,,---,0.00,VWS V14.01,2013-03-24 13:49:00,
2013-03-24 09:54:00,35.7,21.6,29.94,North,10,6.0,17.0,56,0.00,,---,0.00,VWS V14.01,2013-03-24 13:54:00,
2013-03-24 09:59:00,35.9,23.4,29.94,NNE,20,6.0,17.0,60,0.00,,---,0.00,VWS V14.01,2013-03-24 13:59:00,
2013-03-24 10:04:00,36.1,21.9,29.94,NNW,346,3.0,8.0,56,0.00,,---,0.00,VWS V14.01,2013-03-24 14:04:00,
2013-03-24 10:09:00,36.1,21.1,29.95,WSW,256,1.0,13.0,54,0.00,,---,0.00,VWS V14.01,2013-03-24 14:09:00,
2013-03-24 10:14:00,36.2,21.2,29.94,NW,315,9.0,13.0,54,0.00,,---,0.00,VWS V14.01,2013-03-24 14:14:00,
2013-03-24 10:19:00,36.5,21.9,29.94,NNE,18,2.0,13.0,55,0.00,,---,0.00,VWS V14.01,2013-03-24 14:19:00,
2013-03-24 10:24:00,36.7,21.6,29.94,NNE,23,4.0,13.0,54,0.00,,---,0.00,VWS V14.01,2013-03-24 14:24:00,
2013-03-24 10:29:00,36.7,21.2,29.94,NNE,25,5.0,13.0,53,0.00,,---,0.00,VWS V14.01,2013-03-24 14:29:00,
2013-03-24 10:34:00,36.9,21.8,29.94,NNW,332,5.0,9.0,54,0.00,,---,0.00,VWS V14.01,2013-03-24 14:34:00,
2013-03-24 10:39:00,36.7,21.6,29.93,NW,322,4.0,9.0,54,0.00,,---,0.00,VWS V14.01,2013-03-24 14:39:00,
2013-03-24 10:44:00,36.9,21.4,29.93,NE,43,1.0,9.0,53,0.00,,---,0.00,VWS V14.01,2013-03-24 14:44:00,
2013-03-24 10:49:00,37.1,21.1,29.92,NW,309,1.0,10.0,52,0.00,,---,0.00,VWS V14.01,2013-03-24 14:49:00,
2013-03-24 10:54:00,36.9,21.4,29.92,NE,42,5.0,11.0,53,0.00,,---,0.00,VWS V14.01,2013-03-24 14:54:00,
2013-03-24 10:59:00,37.2,21.2,29.92,NW,323,4.0,11.0,52,0.00,,---,0.00,VWS V14.01,2013-03-24 14:59:00,
2013-03-24 11:04:00,37.2,21.2,29.91,NNE,16,2.0,6.0,52,0.00,,---,0.00,VWS V14.01,2013-03-24 15:04:00,
2013-03-24 11:09:00,37.7,22.1,29.91,NW,305,5.0,7.0,53,0.00,,---,0.00,VWS V14.01,2013-03-24 15:09:00,
2013-03-24 11:14:00,37.7,21.2,29.91,NNE,16,8.0,9.0,51,0.00,,---,0.00,VWS V14.01,2013-03-24 15:14:00,
2013-03-24 11:19:00,37.7,21.2,29.91,ENE,58,7.0,11.0,51,0.00,,---,0.00,VWS V14.01,2013-03-24 15:19:00,
2013-03-24 11:24:00,37.7,21.2,29.91,North,6,2.0,11.0,51,0.00,,---,0.00,VWS V14.01,2013-03-24 15:24:00,
2013-03-24 11:29:00,37.7,21.2,29.90,NNE,27,9.0,11.0,51,0.00,,---,0.00,VWS V14.01,2013-03-24 15:29:00,
2013-03-24 11:34:00,38.1,22.0,29.90,NNW,338,3.0,8.0,52,0.00,,---,0.00,VWS V14.01,2013-03-24 15:34:00,
2013-03-24 11:39:00,38.7,21.7,29.89,NE,44,3.0,11.0,50,0.00,,---,0.00,VWS V14.01,2013-03-24 15:39:00,
2013-03-24 11:44:00,39.1,22.0,29.89,NW,305,12.0,12.0,50,0.00,,---,0.00,VWS V14.01,2013-03-24 15:44:00,
2013-03-24 11:49:00,38.8,20.8,29.88,NW,319,4.0,12.0,48,0.00,,---,0.00,VWS V14.01,2013-03-24 15:49:00,
2013-03-24 11:54:00,39.1,21.6,29.89,NNW,335,3.0,12.0,49,0.00,,---,0.00,VWS V14.01,2013-03-24 15:54:00,
2013-03-24 11:59:00,39.5,21.9,29.88,West,264,5.0,12.0,49,0.00,,---,0.00,VWS V14.01,2013-03-24 15:59:00,
2013-03-24 12:04:00,39.9,20.8,29.88,WSW,253,3.0,7.0,46,0.00,,---,0.00,VWS V14.01,2013-03-24 16:04:00,
2013-03-24 12:09:00,39.8,21.2,29.87,North,355,2.0,8.0,47,0.00,,---,0.00,VWS V14.01,2013-03-24 16:09:00,
2013-03-24 12:14:00,40.0,21.9,29.87,NNE,20,4.0,9.0,48,0.00,,---,0.00,VWS V14.01,2013-03-24 16:14:00,
2013-03-24 12:19:00,40.1,21.5,29.87,WNW,302,4.0,10.0,47,0.00,,---,0.00,VWS V14.01,2013-03-24 16:19:00,
2013-03-24 12:24:00,40.1,22.0,29.86,NNE,33,10.0,15.0,48,0.00,,---,0.00,VWS V14.01,2013-03-24 16:24:00,
2013-03-24 12:29:00,40.0,23.4,29.85,North,352,2.0,15.0,51,0.00,,---,0.00,VWS V14.01,2013-03-24 16:29:00,
2013-03-24 12:34:00,40.4,22.8,29.85,NNW,336,3.0,8.0,49,0.00,,---,0.00,VWS V14.01,2013-03-24 16:34:00,
2013-03-24 12:39:00,40.6,22.0,29.84,NNE,18,7.0,9.0,47,0.00,,---,0.00,VWS V14.01,2013-03-24 16:39:00,
2013-03-24 12:44:00,40.9,22.2,29.84,NNE,26,5.0,10.0,47,0.00,,---,0.00,VWS V14.01,2013-03-24 16:44:00,
2013-03-24 12:49:00,40.7,22.5,29.84,NE,43,8.0,11.0,48,0.00,,---,0.00,VWS V14.01,2013-03-24 16:49:00,
2013-03-24 12:54:00,40.4,21.8,29.84,North,6,6.0,16.0,47,0.00,,---,0.00,VWS V14.01,2013-03-24 16:54:00,
2013-03-24 12:59:00,40.8,22.6,29.85,NNW,338,6.0,16.0,48,0.00,,---,0.00,VWS V14.01,2013-03-24 16:59:00,
2013-03-24 13:04:00,41.1,22.4,29.85,North,10,4.0,11.0,47,0.00,,---,0.00,VWS V14.01,2013-03-24 17:04:00,
2013-03-24 13:09:00,41.2,22.5,29.85,NNE,32,10.0,12.0,47,0.00,,---,0.00,VWS V14.01,2013-03-24 17:09:00,
2013-03-24 13:14:00,41.1,22.4,29.86,NNE,18,10.0,12.0,47,0.00,,---,0.00,VWS V14.01,2013-03-24 17:14:00,
2013-03-24 13:19:00,41.4,22.2,29.86,NE,34,5.0,12.0,46,0.00,,---,0.00,VWS V14.01,2013-03-24 17:19:00,
2013-03-24 13:24:00,41.3,22.6,29.86,North,358,2.0,12.0,47,0.00,,---,0.00,VWS V14.01,2013-03-24 17:24:00,
2013-03-24 13:29:00,41.6,22.4,29.85,NW,325,6.0,12.0,46,0.00,,---,0.00,VWS V14.01,2013-03-24 17:29:00,
2013-03-24 13:34:00,41.7,22.5,29.85,WNW,302,7.0,10.0,46,0.00,,---,0.00,VWS V14.01,2013-03-24 17:34:00,
2013-03-24 13:39:00,41.7,21.4,29.85,West,273,2.0,10.0,44,0.00,,---,0.00,VWS V14.01,2013-03-24 17:39:00,
2013-03-24 13:44:00,42.0,22.2,29.84,NW,311,5.0,10.0,45,0.00,,---,0.00,VWS V14.01,2013-03-24 17:44:00,
2013-03-24 13:49:00,42.3,23.0,29.83,NE,43,7.0,10.0,46,0.00,,---,0.00,VWS V14.01,2013-03-24 17:49:00,
2013-03-24 13:54:00,42.5,22.7,29.83,WSW,257,3.0,11.0,45,0.00,,---,0.00,VWS V14.01,2013-03-24 17:54:00,
2013-03-24 13:59:00,42.6,22.8,29.82,East,101,0.0,11.0,45,0.00,,---,0.00,VWS V14.01,2013-03-24 17:59:00,
2013-03-24 14:04:00,42.7,22.9,29.82,NNE,23,4.0,7.0,45,0.00,,---,0.00,VWS V14.01,2013-03-24 18:04:00,
2013-03-24 14:09:00,42.5,23.2,29.81,NE,36,6.0,9.0,46,0.00,,---,0.00,VWS V14.01,2013-03-24 18:09:00,
2013-03-24 14:14:00,42.9,23.0,29.80,NE,37,2.0,9.0,45,0.00,,---,0.00,VWS V14.01,2013-03-24 18:14:00,
2013-03-24 14:19:00,43.2,23.8,29.80,NNW,343,5.0,9.0,46,0.00,,---,0.00,VWS V14.01,2013-03-24 18:19:00,
2013-03-24 14:24:00,43.0,22.6,29.79,NE,40,3.0,9.0,44,0.00,,---,0.00,VWS V14.01,2013-03-24 18:24:00,
2013-03-24 14:29:00,43.1,22.7,29.79,NNE,18,4.0,9.0,44,0.00,,---,0.00,VWS V14.01,2013-03-24 18:29:00,
2013-03-24 14:34:00,43.5,23.6,29.79,NE,53,1.0,9.0,45,0.00,,---,0.00,VWS V14.01,2013-03-24 18:34:00,
2013-03-24 14:39:00,43.7,22.7,29.78,NE,49,3.0,9.0,43,0.00,,---,0.00,VWS V14.01,2013-03-24 18:39:00,
2013-03-24 14:44:00,43.7,22.7,29.77,NNE,21,2.0,9.0,43,0.00,,---,0.00,VWS V14.01,2013-03-24 18:44:00,
2013-03-24 14:49:00,43.8,23.3,29.77,ENE,71,3.0,9.0,44,0.00,,---,0.00,VWS V14.01,2013-03-24 18:49:00,
2013-03-24 14:54:00,44.1,21.9,29.76,WNW,288,2.0,9.0,41,0.00,,---,0.00,VWS V14.01,2013-03-24 18:54:00,
2013-03-24 14:59:00,44.3,22.7,29.76,NNE,32,9.0,9.0,42,0.00,,---,0.00,VWS V14.01,2013-03-24 18:59:00,
2013-03-24 15:04:00,43.9,22.3,29.76,NE,49,3.0,9.0,42,0.00,,---,0.00,VWS V14.01,2013-03-24 19:04:00,
2013-03-24 15:09:00,44.3,22.1,29.76,NNW,347,3.0,9.0,41,0.00,,---,0.00,VWS V14.01,2013-03-24 19:09:00,
2013-03-24 15:14:00,44.6,23.5,29.76,NNE,26,4.0,9.0,43,0.00,,---,0.00,VWS V14.01,2013-03-24 19:14:00,
2013-03-24 15:19:00,44.8,22.0,29.75,NNE,28,3.0,9.0,40,0.00,,---,0.00,VWS V14.01,2013-03-24 19:19:00,
2013-03-24 15:24:00,44.9,22.6,29.75,North,5,2.0,9.0,41,0.00,,---,0.00,VWS V14.01,2013-03-24 19:24:00,
2013-03-24 15:29:00,45.2,22.9,29.75,NNE,32,4.0,9.0,41,0.00,,---,0.00,VWS V14.01,2013-03-24 19:29:00,
2013-03-24 15:34:00,45.1,23.4,29.74,NNE,23,2.0,9.0,42,0.00,,---,0.00,VWS V14.01,2013-03-24 19:34:00,
2013-03-24 15:39:00,45.1,22.8,29.75,ENE,66,3.0,9.0,41,0.00,,---,0.00,VWS V14.01,2013-03-24 19:39:00,
2013-03-24 15:44:00,45.2,22.3,29.75,NNE,25,4.0,10.0,40,0.00,,---,0.00,VWS V14.01,2013-03-24 19:44:00,
2013-03-24 15:49:00,45.3,23.0,29.74,NE,44,2.0,10.0,41,0.00,,---,0.00,VWS V14.01,2013-03-24 19:49:00,
2013-03-24 15:54:00,45.4,23.7,29.74,NE,39,2.0,10.0,42,0.00,,---,0.00,VWS V14.01,2013-03-24 19:54:00,
2013-03-24 15:59:00,44.9,22.1,29.74,NNE,27,5.0,10.0,40,0.00,,---,0.00,VWS V14.01,2013-03-24 19:59:00,
2013-03-24 16:04:00,44.8,23.7,29.74,NNE,27,4.0,5.0,43,0.00,,---,0.00,VWS V14.01,2013-03-24 20:04:00,
2013-03-24 16:09:00,45.5,23.2,29.74,SE,127,1.0,5.0,41,0.00,,---,0.00,VWS V14.01,2013-03-24 20:09:00,
2013-03-24 16:14:00,45.2,22.9,29.75,NNE,32,0.0,7.0,41,0.00,,---,0.00,VWS V14.01,2013-03-24 20:14:00,
2013-03-24 16:19:00,45.5,23.8,29.74,NNE,30,1.0,7.0,42,0.00,,---,0.00,VWS V14.01,2013-03-24 20:19:00,
2013-03-24 16:24:00,45.3,21.8,29.74,NE,34,5.0,9.0,39,0.00,,---,0.00,VWS V14.01,2013-03-24 20:24:00,
2013-03-24 16:29:00,45.1,22.2,29.74,NE,39,4.0,9.0,40,0.00,,---,0.00,VWS V14.01,2013-03-24 20:29:00,
2013-03-24 16:34:00,44.6,22.4,29.74,NNE,18,3.0,9.0,41,0.00,,---,0.00,VWS V14.01,2013-03-24 20:34:00,
2013-03-24 16:39:00,44.5,22.3,29.74,NE,45,2.0,9.0,41,0.00,,---,0.00,VWS V14.01,2013-03-24 20:39:00,
2013-03-24 16:44:00,44.7,23.0,29.74,NE,39,5.0,9.0,42,0.00,,---,0.00,VWS V14.01,2013-03-24 20:44:00,
2013-03-24 16:49:00,44.8,23.1,29.74,NNE,24,4.0,9.0,42,0.00,,---,0.00,VWS V14.01,2013-03-24 20:49:00,
2013-03-24 16:54:00,44.6,22.9,29.73,NNE,32,3.0,9.0,42,0.00,,---,0.00,VWS V14.01,2013-03-24 20:54:00,
2013-03-24 16:59:00,44.5,22.3,29.73,NE,36,5.0,9.0,41,0.00,,---,0.00,VWS V14.01,2013-03-24 20:59:00,
2013-03-24 17:04:00,44.5,22.9,29.73,NE,43,2.0,5.0,42,0.00,,---,0.00,VWS V14.01,2013-03-24 21:04:00,
2013-03-24 17:09:00,44.5,22.9,29.73,NNE,22,3.0,5.0,42,0.00,,---,0.00,VWS V14.01,2013-03-24 21:09:00,
2013-03-24 17:14:00,44.5,23.4,29.73,NNE,23,6.0,7.0,43,0.00,,---,0.00,VWS V14.01,2013-03-24 21:14:00,
2013-03-24 17:19:00,44.3,24.3,29.72,NE,46,2.0,7.0,45,0.00,,---,0.00,VWS V14.01,2013-03-24 21:19:00,
2013-03-24 17:24:00,44.4,23.3,29.72,ENE,68,2.0,7.0,43,0.00,,---,0.00,VWS V14.01,2013-03-24 21:24:00,
2013-03-24 17:29:00,44.3,22.7,29.73,ENE,72,4.0,8.0,42,0.00,,---,0.00,VWS V14.01,2013-03-24 21:29:00,
2013-03-24 17:34:00,44.1,23.6,29.73,NE,48,6.0,7.0,44,0.00,,---,0.00,VWS V14.01,2013-03-24 21:34:00,
2013-03-24 17:39:00,44.0,23.5,29.73,NE,49,2.0,7.0,44,0.00,,---,0.00,VWS V14.01,2013-03-24 21:39:00,
2013-03-24 17:44:00,44.0,22.4,29.73,ENE,63,3.0,7.0,42,0.00,,---,0.00,VWS V14.01,2013-03-24 21:44:00,
2013-03-24 17:49:00,44.0,22.4,29.73,ENE,68,2.0,7.0,42,0.00,,---,0.00,VWS V14.01,2013-03-24 21:49:00,
2013-03-24 17:54:00,43.9,24.0,29.73,NE,39,3.0,7.0,45,0.00,,---,0.00,VWS V14.01,2013-03-24 21:54:00,
2013-03-24 17:59:00,43.9,23.4,29.73,ENE,59,2.0,7.0,44,0.00,,---,0.00,VWS V14.01,2013-03-24 21:59:00,
2013-03-24 18:04:00,43.8,23.9,29.74,NNE,33,6.0,7.0,45,0.00,,---,0.00,VWS V14.01,2013-03-24 22:04:00,
2013-03-24 18:09:00,43.6,23.1,29.74,NE,55,3.0,9.0,44,0.00,,---,0.00,VWS V14.01,2013-03-24 22:09:00,
2013-03-24 18:14:00,43.5,22.5,29.75,NE,34,3.0,9.0,43,0.00,,---,0.00,VWS V14.01,2013-03-24 22:14:00,
2013-03-24 18:19:00,43.4,23.5,29.75,NE,53,3.0,9.0,45,0.00,,---,0.00,VWS V14.01,2013-03-24 22:19:00,
2013-03-24 18:24:00,43.2,22.2,29.74,NE,49,4.0,9.0,43,0.00,,---,0.00,VWS V14.01,2013-03-24 22:24:00,
2013-03-24 18:29:00,43.1,23.2,29.74,NNE,18,5.0,9.0,45,0.00,,---,0.00,VWS V14.01,2013-03-24 22:29:00,
2013-03-24 18:34:00,43.0,23.6,29.73,NE,54,4.0,5.0,46,0.00,,---,0.00,VWS V14.01,2013-03-24 22:34:00,
2013-03-24 18:39:00,42.9,23.6,29.73,NE,43,5.0,6.0,46,0.00,,---,0.00,VWS V14.01,2013-03-24 22:39:00,
2013-03-24 18:44:00,42.8,23.0,29.73,NE,41,5.0,6.0,45,0.00,,---,0.00,VWS V14.01,2013-03-24 22:44:00,
2013-03-24 18:49:00,42.7,23.4,29.73,NE,41,4.0,7.0,46,0.00,,---,0.00,VWS V14.01,2013-03-24 22:49:00,
2013-03-24 18:54:00,42.6,22.8,29.73,NNE,25,4.0,7.0,45,0.00,,---,0.00,VWS V14.01,2013-03-24 22:54:00,
2013-03-24 18:59:00,42.6,23.8,29.73,NNE,27,3.0,7.0,47,0.00,,---,0.00,VWS V14.01,2013-03-24 22:59:00,
2013-03-24 19:04:00,42.5,23.2,29.73,NE,49,4.0,5.0,46,0.00,,---,0.00,VWS V14.01,2013-03-24 23:04:00,
2013-03-24 19:09:00,42.4,24.1,29.73,NNE,33,3.0,5.0,48,0.00,,---,0.00,VWS V14.01,2013-03-24 23:09:00,
2013-03-24 19:14:00,42.3,24.0,29.74,NE,48,0.0,5.0,48,0.00,,---,0.00,VWS V14.01,2013-03-24 23:14:00,
2013-03-24 19:19:00,42.2,23.4,29.74,NE,55,2.0,5.0,47,0.00,,---,0.00,VWS V14.01,2013-03-24 23:19:00,
2013-03-24 19:24:00,42.1,23.3,29.75,NE,39,0.0,5.0,47,0.00,,---,0.00,VWS V14.01,2013-03-24 23:24:00,
2013-03-24 19:29:00,42.0,23.8,29.75,NE,40,0.0,5.0,48,0.00,,---,0.00,VWS V14.01,2013-03-24 23:29:00,
2013-03-24 19:34:00,41.9,23.7,29.75,NE,40,1.0,2.0,48,0.00,,---,0.00,VWS V14.01,2013-03-24 23:34:00,
2013-03-24 19:39:00,41.8,24.1,29.75,NE,37,1.0,2.0,49,0.00,,---,0.00,VWS V14.01,2013-03-24 23:39:00,
2013-03-24 19:44:00,41.7,24.0,29.76,ENE,70,2.0,3.0,49,0.00,,---,0.00,VWS V14.01,2013-03-24 23:44:00,
2013-03-24 19:49:00,41.7,23.0,29.76,NE,37,3.0,3.0,47,0.00,,---,0.00,VWS V14.01,2013-03-24 23:49:00,
2013-03-24 19:54:00,41.7,23.0,29.77,NE,41,2.0,4.0,47,0.00,,---,0.00,VWS V14.01,2013-03-24 23:54:00,
2013-03-24 19:59:00,41.7,23.5,29.77,ENE,60,2.0,4.0,48,0.00,,---,0.00,VWS V14.01,2013-03-24 23:59:00,
2013-03-24 20:04:00,41.7,24.0,29.77,NE,56,2.0,2.0,49,0.00,,---,0.00,VWS V14.01,2013-03-25 00:04:00,
2013-03-24 20:09:00,41.5,24.3,29.77,NE,43,2.0,3.0,50,0.00,,---,0.00,VWS V14.01,2013-03-25 00:09:00,
2013-03-24 20:14:00,41.4,23.2,29.77,NE,49,2.0,5.0,48,0.00,,---,0.00,VWS V14.01,2013-03-25 00:14:00,
2013-03-24 20:19:00,41.3,24.1,29.77,ENE,70,1.0,5.0,50,0.00,,---,0.00,VWS V14.01,2013-03-25 00:19:00,
2013-03-24 20:24:00,41.3,24.1,29.77,NE,40,3.0,5.0,50,0.00,,---,0.00,VWS V14.01,2013-03-25 00:24:00,
2013-03-24 20:29:00,41.2,24.0,29.76,NE,44,2.0,5.0,50,0.00,,---,0.00,VWS V14.01,2013-03-25 00:29:00,
2013-03-24 20:34:00,41.1,24.4,29.76,NE,36,1.0,3.0,51,0.00,,---,0.00,VWS V14.01,2013-03-25 00:34:00,
2013-03-24 20:39:00,41.0,24.3,29.76,NE,44,2.0,3.0,51,0.00,,---,0.00,VWS V14.01,2013-03-25 00:39:00,
2013-03-24 20:44:00,40.9,24.2,29.76,NE,41,0.0,3.0,51,0.00,,---,0.00,VWS V14.01,2013-03-25 00:44:00,
2013-03-24 20:49:00,40.8,24.1,29.77,NE,41,1.0,3.0,51,0.00,,---,0.00,VWS V14.01,2013-03-25 00:49:00,
2013-03-24 20:54:00,40.7,24.0,29.77,NE,41,0.0,3.0,51,0.00,,---,0.00,VWS V14.01,2013-03-25 00:54:00,
2013-03-24 20:59:00,40.6,23.9,29.77,NE,41,1.0,3.0,51,0.00,,---,0.00,VWS V14.01,2013-03-25 00:59:00,
2013-03-24 21:04:00,40.5,24.3,29.77,NE,44,1.0,2.0,52,0.00,,---,0.00,VWS V14.01,2013-03-25 01:04:00,
2013-03-24 21:09:00,40.4,24.2,29.77,ENE,64,0.0,2.0,52,0.00,,---,0.00,VWS V14.01,2013-03-25 01:09:00,
2013-03-24 21:14:00,40.3,24.5,29.77,NE,54,2.0,2.0,53,0.00,,---,0.00,VWS V14.01,2013-03-25 01:14:00,
2013-03-24 21:19:00,40.3,25.4,29.77,NE,45,0.0,2.0,55,0.00,,---,0.00,VWS V14.01,2013-03-25 01:19:00,
2013-03-24 21:24:00,40.1,24.8,29.77,NE,46,0.0,2.0,54,0.00,,---,0.00,VWS V14.01,2013-03-25 01:24:00,
2013-03-24 21:29:00,40.0,25.1,29.77,NE,45,0.0,2.0,55,0.00,,---,0.00,VWS V14.01,2013-03-25 01:29:00,
2013-03-24 21:34:00,39.7,25.3,29.77,NE,45,0.0,0.0,56,0.00,,---,0.00,VWS V14.01,2013-03-25 01:34:00,
2013-03-24 21:39:00,39.4,25.0,29.77,NE,45,0.0,0.0,56,0.00,,---,0.00,VWS V14.01,2013-03-25 01:39:00,
2013-03-24 21:44:00,39.2,24.4,29.77,NE,44,0.0,0.0,55,0.00,,---,0.00,VWS V14.01,2013-03-25 01:44:00,
2013-03-24 21:49:00,39.3,24.5,29.77,NE,44,1.0,1.0,55,0.00,,---,0.00,VWS V14.01,2013-03-25 01:49:00,
2013-03-24 21:54:00,39.3,24.1,29.77,NE,44,1.0,2.0,54,0.00,,---,0.00,VWS V14.01,2013-03-25 01:54:00,
2013-03-24 21:59:00,39.3,24.1,29.77,NE,51,1.0,2.0,54,0.00,,---,0.00,VWS V14.01,2013-03-25 01:59:00,
2013-03-24 22:04:00,39.3,24.9,29.77,NE,53,0.0,1.0,56,0.00,,---,0.00,VWS V14.01,2013-03-25 02:04:00,
2013-03-24 22:09:00,39.1,24.3,29.77,NE,53,0.0,1.0,55,0.00,,---,0.00,VWS V14.01,2013-03-25 02:09:00,
2013-03-24 22:14:00,39.0,24.2,29.77,NE,53,0.0,1.0,55,0.00,,---,0.00,VWS V14.01,2013-03-25 02:14:00,
2013-03-24 22:19:00,38.9,24.1,29.77,NE,53,0.0,1.0,55,0.00,,---,0.00,VWS V14.01,2013-03-25 02:19:00,
2013-03-24 22:24:00,38.7,24.4,29.77,NE,52,0.0,1.0,56,0.00,,---,0.00,VWS V14.01,2013-03-25 02:24:00,
2013-03-24 22:29:00,38.4,24.1,29.77,NE,52,0.0,1.0,56,0.00,,---,0.00,VWS V14.01,2013-03-25 02:29:00,
2013-03-24 22:34:00,38.3,24.4,29.76,NE,53,0.0,0.0,57,0.00,,---,0.00,VWS V14.01,2013-03-25 02:34:00,
2013-03-24 22:39:00,38.1,24.2,29.76,NE,53,0.0,0.0,57,0.00,,---,0.00,VWS V14.01,2013-03-25 02:39:00,
2013-03-24 22:44:00,38.0,24.1,29.76,NE,53,0.0,0.0,57,0.00,,---,0.00,VWS V14.01,2013-03-25 02:44:00,
2013-03-24 22:49:00,37.8,24.4,29.76,NE,53,0.0,0.0,58,0.00,,---,0.00,VWS V14.01,2013-03-25 02:49:00,
2013-03-24 22:54:00,37.7,25.1,29.76,NE,53,0.0,0.0,60,0.00,,---,0.00,VWS V14.01,2013-03-25 02:54:00,
2013-03-24 22:59:00,37.5,24.9,29.76,NE,53,0.0,0.0,60,0.00,,---,0.00,VWS V14.01,2013-03-25 02:59:00,
2013-03-24 23:04:00,37.2,24.2,29.75,NE,53,0.0,0.0,59,0.00,,---,0.00,VWS V14.01,2013-03-25 03:04:00,
2013-03-24 23:09:00,37.1,25.3,29.75,NE,53,0.0,0.0,62,0.00,,---,0.00,VWS V14.01,2013-03-25 03:09:00,
2013-03-24 23:14:00,36.9,25.9,29.75,NE,53,0.0,0.0,64,0.00,,---,0.00,VWS V14.01,2013-03-25 03:14:00,
2013-03-24 23:19:00,36.7,25.7,29.74,NE,53,0.0,0.0,64,0.00,,---,0.00,VWS V14.01,2013-03-25 03:19:00,
2013-03-24 23:24:00,36.5,25.9,29.74,NE,53,0.0,0.0,65,0.00,,---,0.00,VWS V14.01,2013-03-25 03:24:00,
2013-03-24 23:29:00,36.4,25.8,29.74,NE,53,0.0,0.0,65,0.00,,---,0.00,VWS V14.01,2013-03-25 03:29:00,
2013-03-24 23:34:00,36.2,26.0,29.74,NE,53,0.0,0.0,66,0.00,,---,0.00,VWS V14.01,2013-03-25 03:34:00,
2013-03-24 23:39:00,36.1,26.6,29.73,NE,53,0.0,0.0,68,0.00,,---,0.00,VWS V14.01,2013-03-25 03:39:00,
2013-03-24 23:44:00,36.0,26.5,29.73,NE,53,0.0,0.0,68,0.00,,---,0.00,VWS V14.01,2013-03-25 03:44:00,
2013-03-24 23:49:00,35.9,26.7,29.73,NE,53,0.0,0.0,69,0.00,,---,0.00,VWS V14.01,2013-03-25 03:49:00,
2013-03-24 23:54:00,36.0,27.2,29.73,NE,53,0.0,0.0,70,0.00,,---,0.00,VWS V14.01,2013-03-25 03:54:00,
2013-03-24 23:59:00,35.9,27.1,29.72,NE,52,0.0,0.0,70,0.00,,---,0.00,VWS V14.01,2013-03-25 03:59:00,